Weather History for Camdenton, MO

Change the Weather History Date:

Friday, October 4, 2013

  Actual Average (KAIZ) Record (KAIZ)
Temperature  
Mean Temperature 76 °F -  
Max Temperature 86 °F 70 °F 87 °F (1997)
Min Temperature 66 °F 47 °F 33 °F (2010)
Cooling Degree Days 11    
Growing Degree Days 26 (Base 50)    
Moisture  
Dew Point 67 °F    
Average Humidity 78    
Maximum Humidity 94    
Minimum Humidity 51    
Precipitation  
Precipitation 0.00 in - - ()
Sea Level Pressure  
Sea Level Pressure 29.92 in    
Wind  
Wind Speed 10 mph (SE)    
Max Wind Speed 15 mph    
Max Gust Speed 23 mph    
Visibility 10 miles    
Events      
Averages and records for this station are not official NWS values.
T = Trace of Precipitation, MM = Missing Value Source: NWS Daily Summary

Daily Weather History Graph

Daily Weather History Graph

Search for Another Location

Airport:

Trip Planner

Search our weather history database for the weather conditions in past years. The results will help you decide how hot, cold, wet, or windy it might be!

Date:

Astronomy

Oct. 04, 2013 Rise Set
Actual Time 7:09 AM CDT 6:48 PM CDT
Civil Twilight 6:43 AM CDT 7:15 PM CDT
Nautical Twilight 6:12 AM CDT 7:45 PM CDT
Astronomical Twilight 5:41 AM CDT 8:16 PM CDT
Moon 6:45 AM CDT (10/4) 6:32 PM CDT (10/4)
Length of Visible Light 12h 31m
Length of Day
11h 39m
Waning Crescent, 0% of the Moon is Illuminated
Oct 4
Waning Crescent
Oct 4
New
Oct 11
First Quarter
Oct 18
Full
Oct 26
Last Quarter

Hourly Weather History & Observations

Time (CDT) Temp. Heat Index Dew Point Humidity Pressure Visibility Wind Dir Wind Speed Gust Speed Precip Events Conditions
12:15 AM 69.8 °F - 68.0 °F 94% 29.91 in 10.0 mi SSE 9.2 mph - N/A   Clear
12:35 AM 69.8 °F - 68.0 °F 94% 29.90 in 10.0 mi SSE 12.7 mph 19.6 mph N/A   Clear
12:55 AM 69.8 °F - 68.0 °F 94% 29.90 in 10.0 mi SSE 9.2 mph - N/A   Clear
1:15 AM 69.8 °F - 68.0 °F 94% 29.91 in 10.0 mi SSE 9.2 mph - N/A   Clear
1:35 AM 69.8 °F - 66.2 °F 88% 29.92 in 10.0 mi SSE 9.2 mph - N/A   Clear
1:55 AM 69.8 °F - 66.2 °F 88% 29.92 in 10.0 mi SSE 9.2 mph - N/A   Clear
2:15 AM 69.8 °F - 66.2 °F 88% 29.92 in 10.0 mi SE 6.9 mph - N/A   Clear
2:35 AM 69.8 °F - 66.2 °F 88% 29.92 in 10.0 mi SE 8.1 mph - N/A   Clear
2:55 AM 68.0 °F - 66.2 °F 94% 29.92 in 10.0 mi SE 8.1 mph - N/A   Clear
3:15 AM 68.0 °F - 66.2 °F 94% 29.92 in 10.0 mi SE 8.1 mph - N/A   Clear
3:35 AM 68.0 °F - 66.2 °F 94% 29.91 in 10.0 mi SE 8.1 mph - N/A   Clear
3:55 AM 68.0 °F - 66.2 °F 94% 29.91 in 10.0 mi SE 10.4 mph - N/A   Clear
4:15 AM 69.8 °F - 66.2 °F 88% 29.91 in 10.0 mi SSE 9.2 mph - N/A   Clear
4:35 AM 69.8 °F - 66.2 °F 88% 29.91 in 10.0 mi SSE 11.5 mph - N/A   Clear
4:55 AM 69.8 °F - 66.2 °F 88% 29.91 in 10.0 mi SSE 8.1 mph - N/A   Clear
5:15 AM 68.0 °F - 66.2 °F 94% 29.91 in 10.0 mi SE 8.1 mph - N/A   Clear
5:35 AM 68.0 °F - 66.2 °F 94% 29.92 in 10.0 mi SE 8.1 mph - N/A   Clear
5:55 AM 68.0 °F - 66.2 °F 94% 29.92 in 10.0 mi SE 6.9 mph - N/A   Clear
6:15 AM 68.0 °F - 66.2 °F 94% 29.92 in 7.0 mi SE 8.1 mph - N/A   Clear
6:35 AM 66.2 °F - 64.4 °F 94% 29.93 in 7.0 mi SE 5.8 mph - N/A   Clear
6:55 AM 68.0 °F - 64.4 °F 88% 29.93 in 7.0 mi SE 8.1 mph - N/A   Clear
7:15 AM 66.2 °F - 64.4 °F 94% 29.93 in 7.0 mi SE 6.9 mph - N/A   Clear
7:35 AM 68.0 °F - 66.2 °F 94% 29.94 in 7.0 mi SE 8.1 mph - N/A   Clear
7:55 AM 68.0 °F - 66.2 °F 94% 29.94 in 10.0 mi SE 9.2 mph - N/A   Clear
8:15 AM 69.8 °F - 68.0 °F 94% 29.94 in 10.0 mi SE 8.1 mph - N/A   Clear
8:35 AM 71.6 °F - 68.0 °F 88% 29.95 in 10.0 mi SE 10.4 mph 16.1 mph N/A   Clear
8:55 AM 71.6 °F - 68.0 °F 88% 29.95 in 10.0 mi SE 11.5 mph - N/A   Clear
9:15 AM 73.4 °F - 68.0 °F 83% 29.95 in 10.0 mi SE 9.2 mph - N/A   Clear
9:35 AM 75.2 °F - 68.0 °F 78% 29.95 in 10.0 mi SE 11.5 mph - N/A   Clear
9:55 AM 77.0 °F - 68.0 °F 74% 29.95 in 10.0 mi SE 12.7 mph - N/A   Clear
10:15 AM 77.0 °F - 68.0 °F 74% 29.95 in 10.0 mi SSE 11.5 mph 17.3 mph N/A   Scattered Clouds
10:35 AM 78.8 °F - 68.0 °F 69% 29.95 in 10.0 mi SSE 10.4 mph 16.1 mph N/A   Scattered Clouds
10:55 AM 78.8 °F - 68.0 °F 69% 29.95 in 10.0 mi SSE 15.0 mph - N/A   Mostly Cloudy
11:15 AM 78.8 °F - 68.0 °F 69% 29.95 in 10.0 mi South 11.5 mph 18.4 mph N/A   Mostly Cloudy
11:35 AM 80.6 °F 83.2 °F 68.0 °F 65% 29.95 in 10.0 mi SSE 12.7 mph 19.6 mph N/A   Mostly Cloudy
11:55 AM 80.6 °F 83.2 °F 68.0 °F 65% 29.95 in 10.0 mi SSE 13.8 mph 18.4 mph N/A   Scattered Clouds
12:15 PM 80.6 °F 83.2 °F 68.0 °F 65% 29.95 in 10.0 mi South 13.8 mph 17.3 mph N/A   Scattered Clouds
12:35 PM 82.4 °F 85.4 °F 68.0 °F 62% 29.94 in 10.0 mi SSE 12.7 mph 16.1 mph N/A   Mostly Cloudy
12:55 PM 82.4 °F 85.4 °F 68.0 °F 62% 29.94 in 10.0 mi South 13.8 mph - N/A   Scattered Clouds
1:15 PM 82.4 °F 85.4 °F 68.0 °F 62% 29.93 in 10.0 mi SSE 12.7 mph 17.3 mph N/A   Scattered Clouds
1:35 PM 82.4 °F 85.4 °F 68.0 °F 62% 29.92 in 10.0 mi SSE 12.7 mph 19.6 mph N/A   Scattered Clouds
1:55 PM 82.4 °F 85.4 °F 68.0 °F 62% 29.90 in 10.0 mi SSE 11.5 mph 19.6 mph N/A   Clear
2:15 PM 84.2 °F 87.3 °F 68.0 °F 58% 29.90 in 10.0 mi South 10.4 mph 19.6 mph N/A   Clear
2:35 PM 86.0 °F 88.2 °F 66.2 °F 51% 29.90 in 10.0 mi South 11.5 mph - N/A   Clear
2:55 PM 84.2 °F 86.6 °F 66.2 °F 55% 29.89 in 10.0 mi SSE 12.7 mph 16.1 mph N/A   Clear
3:15 PM 82.4 °F 83.9 °F 64.4 °F 54% 29.89 in 10.0 mi SSE 11.5 mph 19.6 mph N/A   Clear
3:35 PM 84.2 °F 85.6 °F 64.4 °F 51% 29.89 in 10.0 mi SE 13.8 mph 19.6 mph N/A   Scattered Clouds
3:55 PM 82.4 °F 83.9 °F 64.4 °F 54% 29.89 in 10.0 mi SSE 11.5 mph 19.6 mph N/A   Scattered Clouds
4:15 PM 82.4 °F 83.9 °F 64.4 °F 54% 29.89 in 10.0 mi SSE 12.7 mph 16.1 mph N/A   Scattered Clouds
4:35 PM 82.4 °F 83.9 °F 64.4 °F 54% 29.89 in 10.0 mi SSE 11.5 mph 23.0 mph N/A   Scattered Clouds
4:55 PM 82.4 °F 83.9 °F 64.4 °F 54% 29.90 in 10.0 mi SE 11.5 mph 20.7 mph N/A   Clear
5:15 PM 80.6 °F 82.7 °F 66.2 °F 61% 29.90 in 10.0 mi SE 10.4 mph - N/A   Clear
5:35 PM 80.6 °F 82.7 °F 66.2 °F 61% 29.89 in 10.0 mi SSE 11.5 mph 19.6 mph N/A   Scattered Clouds
5:55 PM 80.6 °F 83.2 °F 68.0 °F 65% 29.89 in 10.0 mi SE 9.2 mph - N/A   Scattered Clouds
6:15 PM 78.8 °F - 68.0 °F 69% 29.89 in 10.0 mi SE 11.5 mph - N/A   Scattered Clouds
6:35 PM 78.8 °F - 68.0 °F 69% 29.89 in 10.0 mi SE 8.1 mph - N/A   Clear
6:55 PM 77.0 °F - 68.0 °F 74% 29.89 in 10.0 mi ESE 6.9 mph - N/A   Clear
7:55 PM 73.4 °F - 68.0 °F 83% 29.91 in 10.0 mi SE 5.8 mph - N/A   Clear
8:15 PM 73.4 °F - 68.0 °F 83% 29.91 in 10.0 mi ESE 6.9 mph - N/A   Clear
8:35 PM 73.4 °F - 66.2 °F 78% 29.92 in 10.0 mi SE 6.9 mph - N/A   Clear
8:55 PM 73.4 °F - 66.2 °F 78% 29.92 in 10.0 mi SE 6.9 mph - N/A   Clear
9:15 PM 73.4 °F - 66.2 °F 78% 29.94 in 10.0 mi ESE 5.8 mph - N/A   Clear
9:35 PM 73.4 °F - 66.2 °F 78% 29.93 in 10.0 mi SE 9.2 mph - N/A   Clear
9:55 PM 71.6 °F - 66.2 °F 83% 29.93 in 10.0 mi SE 9.2 mph - N/A   Clear
10:15 PM 71.6 °F - 66.2 °F 83% 29.92 in 10.0 mi SE 12.7 mph - N/A   Clear
10:35 PM 71.6 °F - 68.0 °F 88% 29.93 in 10.0 mi SE 10.4 mph - N/A   Clear
10:55 PM 73.4 °F - 68.0 °F 83% 29.93 in 10.0 mi SE 10.4 mph - N/A   Clear
11:15 PM 73.4 °F - 68.0 °F 83% 29.94 in 10.0 mi SE 10.4 mph 16.1 mph N/A   Clear
11:35 PM 73.4 °F - 68.0 °F 83% 29.94 in 10.0 mi SE 10.4 mph - N/A   Clear
11:55 PM 73.4 °F - 68.0 °F 83% 29.95 in 10.0 mi SSE 8.1 mph - N/A   Clear